This demonstration page uses our WeatherBlox Daily Observations layout. Learn more.

Left ArrowRight Arrow

Hourly Observations for October 1, 2015

Temp ( °F °C ) Dew Point ( °F °C ) Humidity (%) Winds ( mph kmh ) Pressure ( in mb ) Visibility ( mi km ) Precip ( " mm )
12:53 am 00:53 Mostly Cloudy 69 20.6 64 17.8 84 84 NNW 7 11 29.81 1010 10 16 0.00 0.00
1:53 am 01:53 Cloudy 68 20 64 17.8 87 87 NNW 3 6 29.80 1009 10 16 0.00 0.00
2:53 am 02:53 Cloudy 68 20 63 17.2 84 84 NNW 5 7 29.80 1009 10 16 0.00 0.00
3:53 am 03:53 Cloudy 67 19.4 62 16.7 84 84 NW 6 9 29.80 1009 10 16 0.00 0.00
4:38 am 04:38 Cloudy 66 19 63 17 88 88 NNW 6 9 29.80 1009 10 16 0.00 0.00
4:53 am 04:53 Cloudy 67 19.4 62 16.7 84 84 NNW 3 6 29.80 1009 10 16 0.00 0.00
5:53 am 05:53 Cloudy 66 18.9 62 16.7 87 87 NNW 6 9 29.79 1009 10 16 0.00 0.00
6:53 am 06:53 Cloudy 66 18.9 62 16.7 87 87 Calm 29.81 1009 10 16 0.00 0.00
7:39 am 07:39 Cloudy 66 18.9 62 16.7 87 87 N 3 6 29.80 1009 10 16 0.00 0.00
7:53 am 07:53 Cloudy 66 18.9 62 16.7 87 87 Calm 29.81 1010 10 16 0.00 0.00
8:31 am 08:31 Cloudy 67 19.4 63 17.2 87 87 Calm 29.80 1009 10 16 0.00 0.00
8:53 am 08:53 Cloudy 67 19.4 63 17.2 87 87 N 5 7 29.82 1010 10 16 0.00 0.00
9:53 am 09:53 Cloudy 68 20 63 17.2 84 84 N 3 6 29.83 1010 10 16 0.00 0.00
10:53 am 10:53 Cloudy 69 20.6 64 17.8 84 84 N 5 7 29.83 1010 10 16 0.00 0.00
11:53 am 11:53 Cloudy 72 22.2 65 18.3 79 79 VRB 7 11 29.82 1010 10 16 0.00 0.00
12:53 pm 12:53 Cloudy 71 21.7 64 17.8 79 79 NE 7 11 29.82 1010 10 16 0.00 0.00
1:53 pm 13:53 Cloudy 71 21.7 64 17.8 79 79 E 7 11 29.82 1010 10 16 0.00 0.00
2:53 pm 14:53 Cloudy 71 21.7 64 17.8 79 79 NNE 5 7 29.80 1009 10 16 0.00 0.00
3:06 pm 15:06 Cloudy 72 22 64 18 78 78 N 5 7 29.80 1009 10 16 0.00 0.00
3:53 pm 15:53 Cloudy 71 21.7 64 17.8 79 79 NE 7 11 29.79 1009 10 16 0.00 0.00
4:53 pm 16:53 Cloudy 71 21.7 64 17.8 79 79 NE 6 9 29.79 1009 10 16 0.00 0.03
5:53 pm 17:53 Cloudy 69 20.6 64 17.8 84 84 NNE 7 11 29.79 1009 10 16 0.00 0.00
6:00 pm 18:00 Cloudy 69 20.6 64 17.8 84 84 NNE 7 11 29.77 1008 8 13 0.00 0.00
6:53 pm 18:53 Cloudy 68 20 64 17.8 87 87 NNE 5 7 29.80 1009 9 14 0.00 0.03
7:15 pm 19:15 Cloudy 69 20.6 64 17.8 84 84 NNE 3 6 29.80 1009 10 16 0.00 0.00
7:53 pm 19:53 Mostly Clear 75 24 66 19 74 74 Calm 29.77 1008 10 16 0.00 0.00
8:53 pm 20:53 Cloudy with Rain 66 18.9 64 17.8 93 93 N 6 9 29.81 1009 5 8 0.04 1.02
9:44 pm 21:44 Cloudy with Light Rain 66 19 64 18 94 94 Calm 29.80 1009 7 11 0.00 0.00
9:53 pm 21:53 Cloudy 67 19.4 65 18.3 93 93 Calm 29.81 1010 8 13 0.01 0.25
10:16 pm 22:16 Cloudy with Mist and Fog 66 19 64 18 94 94 NE 5 7 29.80 1009 4 6 0.00 0.00
10:53 pm 22:53 Cloudy with Mist and Fog 66 18.9 64 17.8 93 93 NNE 3 6 29.82 1010 6 10 0.00 0.03
11:26 pm 23:26 Cloudy with Mist and Fog 66 19 64 18 94 94 N 5 7 29.80 1009 5 8 0.00 0.00
11:53 pm 23:53 Cloudy with Light Rain 66 18.9 64 17.8 93 93 Calm 29.80 1009 3 5 0.01 0.25

Powered by AerisWeather